Vertical_Velocity
-1 -2 -2 -3 -3 -3 -3 -2 -3 -3 -3 -4 -4 -4 -3 -3 -2 -2 -2 -3 -4 -4 -4 -4 -4 -4 -4 -4 -4 -4 -3 -2 -1 -0 0 1 0 -0 -0 -0 -0 -0 -0 -0 -1 -1 -1 -0 0 -0 -0 -0 -1 -1 -2 -2 -2 -2 -2 -2 -1 1 2 2 4 4 5 6 6
-1 -1 -2 -2 -2 -2 -1 -2 -2 -3 -4 -4 -4 -4 -3 -3 -2 -2 -2 -2 -3 -4 -4 -4 -4 -4 -4 -4 -4 -4 -4 -3 -2 -1 -0 -0 0 1 1 0 0 0 0 0 0 -0 -0 -0 -0 -0 -0 -1 -1 -1 -1 -1 -1 -2 -2 -2 -1 -0 0 1 1 2 3 4 4
-2 -2 -2 -2 -2 -2 -2 -2 -2 -3 -4 -4 -4 -4 -3 -3 -2 -2 -3 -3 -3 -3 -4 -4 -4 -4 -3 -3 -3 -3 -3 -4 -3 -2 -1 -1 -0 1 1 1 1 1 1 1 1 1 1 1 1 1 0 -0 -1 -1 -1 -0 -0 -1 -2 -2 -2 -1 -1 -0 1 1 1 1 3
-3 -3 -4 -4 -4 -4 -3 -3 -2 -2 -2 -2 -3 -3 -3 -3 -3 -3 -3 -2 -3 -3 -4 -4 -4 -4 -3 -3 -3 -3 -3 -3 -2 -2 -2 -1 -1 0 1 2 2 2 2 1 2 2 2 2 2 2 1 0 -1 -1 -1 -1 -0 -1 -1 -1 -1 -2 -2 -1 -0 -0 -0 0 1
-1 -2 -3 -4 -4 -3 -3 -2 -3 -3 -2 -2 -3 -3 -3 -3 -4 -4 -4 -4 -4 -3 -3 -3 -4 -4 -3 -3 -3 -3 -2 -2 -2 -1 -1 -1 -1 -0 0 2 2 2 2 1 1 2 2 3 3 3 2 1 1 0 -0 -1 -1 -1 -1 -1 -1 -1 -2 -2 -1 -0 0 0 0
-2 -2 -2 -2 -2 -2 -2 -2 -2 -2 -2 -2 -2 -2 -3 -3 -4 -5 -5 -5 -4 -3 -2 -2 -2 -2 -2 -2 -2 -2 -2 -2 -1 -1 -1 -1 -1 -1 -0 1 2 3 2 1 1 1 2 2 2 2 2 2 2 1 1 0 -0 -1 -1 -1 -1 -1 -1 -2 -1 -0 0 1 1
-3 -3 -3 -3 -3 -2 -2 -1 -1 -1 -1 -2 -2 -2 -2 -3 -3 -4 -4 -4 -3 -3 -2 -2 -2 -2 -2 -2 -2 -2 -2 -2 -1 -1 -1 -1 -1 -1 -1 -0 2 2 3 2 2 1 1 1 1 1 1 2 2 2 1 1 0 -0 -0 -0 -0 -1 -1 -1 -1 -0 0 1 2
-2 -2 -3 -4 -4 -3 -2 -2 -2 -2 -2 -2 -2 -2 -2 -3 -3 -3 -2 -2 -3 -3 -3 -2 -2 -2 -3 -3 -3 -3 -2 -2 -1 -1 -1 -1 -1 -1 -1 -1 0 2 2 3 2 2 2 2 1 1 0 0 1 1 1 1 1 0 -0 0 0 -0 -0 -1 -1 -1 -0 1 2
-1 -1 -2 -2 -2 -2 -2 -2 -3 -3 -2 -2 -2 -2 -2 -3 -3 -3 -3 -3 -3 -3 -3 -3 -3 -3 -3 -3 -2 -2 -2 -2 -2 -1 -1 -1 -1 -1 -2 -2 -1 0 1 2 2 2 2 2 2 2 1 0 0 1 1 1 1 -0 -0 -0 -0 0 0 0 -0 -0 -0 1 2
-2 -2 -2 -2 -3 -3 -3 -3 -3 -3 -3 -2 -2 -2 -2 -2 -2 -2 -3 -3 -2 -2 -2 -3 -3 -3 -2 -2 -2 -2 -2 -2 -2 -2 -2 -2 -2 -2 -2 -3 -2 -1 -0 0 1 1 1 2 2 2 2 1 1 1 1 1 1 -0 -0 -1 -1 -0 0 1 1 0 0 0 1
-2 -2 -3 -3 -3 -3 -3 -3 -3 -3 -3 -3 -2 -2 -2 -2 -2 -2 -2 -2 -2 -2 -2 -2 -3 -3 -2 -2 -2 -2 -2 -2 -2 -2 -2 -2 -2 -2 -3 -3 -3 -3 -2 -1 -1 -1 -0 0 1 1 2 2 1 1 1 1 0 0 -0 -0 -1 -0 -0 1 1 1 1 0 1
-2 -2 -3 -3 -3 -2 -2 -2 -3 -3 -3 -3 -2 -2 -2 -2 -2 -2 -2 -2 -2 -2 -2 -2 -2 -2 -2 -2 -2 -2 -2 -2 -2 -2 -2 -2 -2 -2 -2 -3 -3 -3 -2 -2 -2 -2 -2 -1 -1 -1 0 1 1 1 0 -0 -1 -1 -1 -1 -1 -1 -1 -0 0 1 1 0 0
-2 -2 -3 -3 -3 -2 -2 -2 -2 -2 -2 -3 -2 -2 -2 -2 -2 -2 -2 -2 -2 -1 -1 -1 -1 -2 -2 -3 -3 -3 -3 -2 -2 -2 -2 -2 -2 -2 -2 -2 -3 -3 -3 -3 -3 -3 -2 -2 -2 -2 -1 -0 1 1 0 -0 -1 -2 -3 -3 -3 -2 -2 -1 -0 -0 -0 -0 0
-2 -2 -3 -4 -3 -3 -2 -2 -2 -2 -2 -3 -3 -3 -3 -2 -2 -2 -2 -2 -2 -2 -2 -1 -1 -1 -2 -3 -3 -3 -3 -3 -2 -2 -2 -1 -1 -1 -2 -2 -2 -3 -3 -3 -3 -3 -3 -3 -3 -2 -2 -2 -0 1 1 0 -1 -2 -3 -4 -4 -4 -3 -3 -2 -1 -1 -1 -1
-1 -2 -3 -4 -3 -3 -3 -2 -2 -3 -3 -3 -3 -3 -3 -2 -2 -2 -2 -1 -1 -2 -2 -2 -2 -2 -2 -2 -3 -3 -3 -3 -2 -2 -2 -1 -1 -1 -1 -2 -2 -2 -3 -3 -3 -3 -2 -2 -2 -3 -3 -2 -1 -0 1 1 -0 -1 -3 -4 -4 -5 -5 -4 -4 -3 -2 -2 -2
-2 -2 -3 -4 -3 -3 -3 -3 -3 -3 -3 -3 -3 -3 -2 -2 -2 -2 -2 -2 -1 -1 -1 -2 -2 -2 -2 -2 -2 -3 -3 -3 -3 -2 -2 -2 -1 -1 -0 -1 -1 -2 -2 -3 -3 -3 -2 -2 -2 -2 -2 -2 -2 -1 -0 0 -0 -1 -2 -3 -4 -4 -4 -4 -4 -4 -4 -4 -4
-2 -2 -3 -4 -4 -3 -3 -3 -3 -3 -3 -2 -2 -2 -2 -2 -2 -2 -2 -3 -2 -2 -1 -1 -2 -2 -2 -2 -2 -3 -3 -3 -3 -3 -2 -2 -2 -1 -1 -1 -1 -2 -2 -3 -3 -3 -2 -2 -2 -2 -2 -1 -1 -1 -1 0 -0 -1 -2 -3 -2 -2 -3 -4 -4 -5 -6 -6 -6
-1 -2 -3 -3 -3 -3 -2 -2 -2 -2 -2 -2 -2 -2 -2 -2 -2 -2 -2 -2 -2 -2 -1 -1 -2 -2 -3 -3 -3 -3 -3 -4 -3 -3 -3 -2 -2 -2 -2 -1 -1 -1 -2 -2 -2 -2 -3 -3 -3 -3 -2 -2 -2 -2 -1 1 1 -0 -2 -2 -2 -2 -2 -4 -5 -6 -7 -8 -8
-1 -2 -3 -3 -3 -3 -2 -2 -2 -2 -2 -2 -2 -1 -2 -2 -2 -2 -2 -1 -2 -2 -2 -2 -2 -2 -2 -3 -3 -3 -3 -4 -4 -3 -3 -2 -3 -3 -2 -2 -1 -1 -1 -1 -2 -2 -3 -4 -4 -4 -4 -3 -3 -3 -2 1 1 -0 -1 -1 -2 -3 -4 -5 -5 -6 -7 -8 -8
-1 -2 -3 -3 -3 -3 -2 -2 -2 -2 -2 -2 -2 -2 -2 -2 -2 -2 -2 -2 -2 -2 -2 -2 -2 -2 -2 -2 -2 -2 -3 -3 -3 -3 -3 -2 -2 -3 -3 -2 -2 -1 -1 -1 -1 -2 -2 -4 -4 -4 -4 -4 -4 -3 -2 1 0 -1 -1 -1 -2 -3 -3 -4 -4 -5 -6 -8 -7
-1 -2 -3 -3 -3 -3 -2 -2 -2 -2 -3 -3 -3 -3 -2 -2 -2 -2 -2 -2 -2 -2 -2 -2 -2 -2 -2 -2 -2 -2 -2 -2 -3 -3 -3 -3 -3 -3 -3 -3 -3 -2 -1 -1 -1 -2 -2 -3 -3 -3 -3 -4 -4 -2 -1 0 -1 -1 -1 -1 -1 -1 -0 -1 -2 -4 -5 -6 -6
-1 -2 -2 -3 -3 -3 -2 -2 -2 -3 -3 -3 -3 -2 -2 -2 -2 -2 -2 -2 -2 -2 -2 -2 -2 -2 -2 -2 -2 -2 -2 -1 -2 -2 -2 -3 -3 -3 -3 -3 -3 -3 -2 -1 -1 -2 -2 -2 -2 -2 -2 -3 -2 -1 -0 -0 -0 -0 -0 -0 1 2 2 0 -1 -3 -4 -4 -4
-1 -2 -2 -3 -3 -2 -2 -2 -2 -3 -3 -3 -2 -2 -2 -2 -2 -2 -2 -2 -3 -2 -2 -1 -1 -1 -1 -1 -1 -1 -1 -1 -1 -1 -1 -2 -2 -2 -2 -2 -3 -3 -3 -3 -3 -3 -3 -3 -2 -2 -1 -0 -0 -0 0 0 1 1 1 2 3 4 3 1 -1 -2 -3 -3 -3
-1 -1 -2 -2 -2 -2 -2 -2 -2 -2 -2 -2 -2 -2 -2 -2 -2 -2 -2 -2 -2 -1 -1 -0 -1 -0 -0 0 -0 -1 -1 -1 -1 -1 -1 -1 -1 -1 -1 -2 -2 -2 -3 -3 -3 -2 -2 -2 -0 1 1 0 -0 -0 1 2 1 1 2 4 4 3 2 1 0 -1 -1 -2 -2
-1 -2 -2 -2 -2 -2 -2 -1 -2 -2 -2 -3 -3 -3 -2 -2 -2 -2 -1 -1 -1 -0 -0 -0 -0 1 1 2 1 -0 -1 -2 -3 -2 -1 -0 -0 -1 -1 -1 -1 -1 -1 -2 -1 -1 -1 0 6 9 8 0 -1 -1 0 -0 0 2 5 6 4 2 1 -0 -0 -0 -0 -1 -1
-1 -2 -2 -2 -2 -2 -2 -1 -2 -3 -3 -3 -3 -2 -2 -2 -1 -1 -1 -1 -1 -1 -1 -1 0 1 2 1 1 -0 -1 -2 -3 -3 -2 -1 -1 -1 -1 -1 -1 -1 -1 -1 -1 -1 -1 -0 6 13 14 4 -1 -3 -3 -4 1 5 8 6 3 2 -0 -2 -2 -1 -0 0 -1
-1 -2 -2 -2 -2 -2 -2 -2 -2 -2 -2 -2 -2 -2 -2 -2 -1 -1 -2 -2 -1 -1 -0 0 1 1 0 -0 -1 -1 -2 -2 -2 -2 -2 -2 -2 -2 -1 -1 -1 -1 -1 -1 -1 -2 -2 -2 0 5 8 8 -0 -4 -4 -1 6 8 7 4 2 0 -1 -2 -1 -1 -0 -0 -1
-1 -1 -2 -2 -2 -2 -2 -2 -2 -2 -2 -2 -2 -2 -2 -2 -2 -2 -2 -2 -1 0 1 1 0 -0 -0 -0 -1 -1 -2 -2 -2 -3 -3 -3 -3 -3 -2 -2 -1 -1 -1 -2 -2 -2 -2 -2 -3 -1 2 8 1 -3 -1 7 10 8 5 3 1 -1 -2 -1 -0 -0 -0 -0 -1
-2 -1 -1 -2 -2 -2 -2 -2 -2 -2 -2 -3 -2 -2 -2 -2 -2 -1 -1 -0 -0 -1 -1 -1 -2 -1 -1 -0 -0 -1 -1 -2 -2 -3 -3 -3 -2 -2 -2 -2 -2 -2 -2 -2 -2 -2 -2 -2 -3 -2 1 8 1 0 5 13 10 7 4 3 -0 -2 -3 -1 -0 1 1 0 -0
-1 -1 -2 -2 -2 -2 -2 -2 -2 -2 -2 -2 -2 -2 -2 -1 -1 -0 0 -0 -2 -3 -3 -3 -3 -2 -2 -1 -1 -1 -1 -2 -2 -3 -3 -2 -2 -1 -1 -1 -2 -2 -2 -2 -2 -2 -3 -3 -3 -2 1 6 3 7 13 16 9 5 4 3 -2 -4 -5 -2 0 1 1 1 0
-1 -1 -2 -2 -2 -2 -2 -2 -2 -2 -2 -2 -2 -2 -2 -2 -1 -2 -2 -3 -2 -2 -1 -1 -0 0 1 1 1 0 -0 -0 -1 -2 -2 -2 -1 -1 -1 -1 -1 -2 -2 -2 -2 -2 -2 -3 -2 -0 1 1 7 13 16 16 8 4 3 1 -4 -6 -5 -3 -0 1 2 1 1
-2 -2 -2 -2 -2 -2 -2 -2 -2 -2 -2 -2 -2 -1 -1 -1 -2 -3 -3 -3 -2 -1 0 1 2 3 3 4 4 3 2 1 -0 -1 -2 -2 -1 -1 -1 -1 -1 -1 -1 -1 -1 -2 -2 -2 -1 0 1 2 5 8 10 9 4 2 0 -2 -3 -3 -1 -1 -0 1 2 2 1
-2 -2 -2 -2 -2 -3 -2 -2 -2 -2 -2 -2 -2 -2 -1 -1 -1 -1 -1 -1 -1 -1 -1 -0 0 1 2 2 3 3 2 1 -0 -1 -1 -1 -1 -1 -1 -2 -1 -1 -0 -0 -0 -1 -1 -1 -0 0 1 1 1 0 -0 -0 0 0 -0 -1 2 4 5 4 2 1 1 2 1
-1 -2 -2 -2 -3 -3 -3 -2 -2 -1 -1 -1 -2 -2 -2 -2 -1 -1 -0 -1 -2 -2 -2 -2 -1 -1 -0 0 1 2 2 1 0 -1 -1 -1 -0 -1 -1 -2 -1 -1 -0 0 0 1 1 0 0 1 1 1 -0 -2 -3 -2 2 4 4 4 5 7 8 7 5 3 1 1 1
-1 -1 -2 -2 -3 -3 -3 -2 -2 -1 -1 -1 -1 -1 -2 -1 -1 -1 -1 -2 -2 -2 -2 -2 -1 -1 -1 0 1 2 2 1 0 -0 -1 -0 -0 -0 -1 -1 -1 -0 0 1 1 1 2 1 1 0 0 -0 -1 -3 -3 1 6 8 8 7 6 6 6 7 5 3 1 1 1
-1 -1 -2 -2 -3 -3 -3 -2 -2 -1 -1 -1 -1 -1 -1 -1 -2 -2 -2 -1 -1 -1 -1 -1 -1 -1 -1 -0 1 1 1 0 -0 -0 -0 0 1 0 0 0 0 1 1 1 2 2 2 2 1 0 -1 -2 -3 -4 -3 2 8 10 8 6 5 5 6 7 5 3 1 0 0
-1 -1 -1 -2 -3 -3 -3 -2 -2 -1 -1 -1 -2 -2 -2 -2 -2 -2 -1 -1 -0 -1 -1 -1 -2 -2 -1 -1 -0 0 0 -0 -1 -0 -0 0 1 1 1 1 1 1 1 2 2 2 2 1 0 -0 -1 -2 -2 -3 -3 1 8 9 8 4 4 5 7 8 6 3 1 0 0
-1 -1 -1 -2 -3 -3 -3 -2 -1 -1 -0 -1 -2 -2 -3 -3 -2 -2 -2 -2 -2 -2 -2 -2 -2 -2 -2 -1 -1 -0 -1 -2 -2 -1 -0 1 1 1 1 1 1 1 2 2 2 1 0 -0 -1 -1 -1 -1 -1 -1 -1 -1 5 8 8 5 4 5 8 10 6 3 1 1 1
-0 -1 -1 -2 -2 -3 -3 -2 -2 -1 -1 -1 -2 -2 -2 -1 -1 -2 -2 -3 -3 -3 -3 -3 -3 -3 -2 -2 -1 -1 -2 -3 -3 -2 -1 -0 -0 0 0 1 1 2 2 2 0 -1 -2 -3 -2 -1 -1 -0 1 1 -0 -2 -0 4 8 7 5 5 7 10 6 4 1 1 2
-0 -1 -1 -2 -2 -2 -2 -2 -2 -2 -2 -2 -2 -2 -2 -2 -2 -2 -2 -3 -3 -3 -3 -3 -3 -3 -3 -3 -3 -3 -4 -4 -3 -2 -1 -1 -1 -0 1 1 1 2 1 0 -1 -2 -3 -3 -2 -2 -1 3 5 4 1 -2 -3 1 7 8 6 5 6 7 5 4 2 1 2
-0 -1 -1 -2 -2 -2 -2 -2 -2 -2 -2 -2 -2 -2 -2 -3 -2 -2 -2 -3 -4 -4 -4 -3 -3 -4 -4 -4 -4 -5 -5 -5 -4 -3 -2 -2 -1 -0 1 1 1 0 -0 -1 -2 -3 -3 -2 -2 -2 0 7 8 6 2 -1 -4 2 10 12 8 5 3 1 1 2 3 2 2
Height
3061 3059 3057 3055 3052 3050 3047 3045 3042 3039 3036 3033 3031 3028 3025 3022 3019 3016 3013 3010 3006 3004 3001 2998 2995 2991 2988 2986 2982 2980 2977 2975 2973 2971 2970 2968 2966 2965 2963 2962 2960 2958 2956 2955 2953 2951 2950 2947 2946 2944 2941 2939 2937 2935 2933 2931 2929 2927 2925 2923 2921 2919 2917 2915 2913 2912 2910 2908 2906
3060 3058 3056 3053 3051 3048 3046 3043 3040 3037 3035 3032 3029 3026 3024 3021 3018 3015 3012 3009 3006 3003 3000 2997 2994 2991 2988 2985 2982 2979 2976 2974 2972 2970 2968 2967 2965 2964 2962 2961 2959 2957 2956 2954 2952 2951 2949 2947 2945 2943 2941 2939 2937 2935 2933 2931 2929 2927 2925 2923 2921 2920 2918 2916 2914 2912 2911 2909 2907
3059 3056 3054 3052 3049 3047 3044 3042 3039 3036 3034 3031 3028 3026 3023 3020 3017 3014 3011 3008 3005 3002 2999 2996 2993 2990 2987 2984 2981 2978 2976 2973 2971 2969 2967 2966 2964 2962 2961 2959 2958 2956 2955 2953 2951 2950 2948 2946 2945 2943 2941 2939 2937 2935 2933 2931 2929 2927 2926 2924 2922 2920 2918 2916 2915 2913 2911 2910 2908
3058 3056 3053 3051 3048 3046 3043 3041 3038 3035 3033 3030 3027 3025 3022 3019 3016 3013 3010 3007 3004 3001 2998 2995 2992 2989 2986 2983 2981 2978 2975 2972 2970 2968 2966 2964 2963 2961 2960 2958 2957 2955 2954 2952 2951 2949 2947 2946 2944 2942 2940 2938 2936 2934 2932 2931 2929 2927 2925 2923 2922 2920 2918 2917 2915 2913 2911 2910 2908
3056 3054 3052 3050 3047 3045 3042 3040 3037 3035 3032 3029 3026 3024 3021 3018 3015 3012 3009 3006 3003 3000 2997 2994 2991 2988 2986 2983 2980 2977 2975 2972 2970 2967 2965 2963 2961 2960 2958 2957 2956 2954 2953 2951 2950 2948 2946 2945 2943 2941 2940 2938 2936 2934 2932 2930 2928 2927 2925 2923 2921 2920 2918 2917 2915 2913 2912 2910 2909
3055 3053 3051 3048 3046 3044 3041 3039 3036 3034 3031 3028 3026 3022 3020 3016 3014 3011 3008 3005 3003 3000 2996 2994 2991 2988 2985 2982 2979 2976 2974 2971 2969 2966 2964 2962 2960 2959 2957 2956 2955 2953 2951 2950 2948 2947 2946 2944 2942 2941 2939 2937 2936 2934 2932 2930 2928 2926 2925 2923 2921 2920 2918 2917 2915 2914 2912 2911 2909
3054 3052 3050 3047 3045 3043 3040 3038 3035 3033 3030 3027 3025 3022 3019 3016 3013 3010 3007 3005 3001 2998 2996 2993 2990 2987 2984 2981 2979 2976 2973 2971 2968 2966 2964 2961 2959 2958 2956 2955 2953 2952 2951 2949 2947 2946 2945 2943 2941 2940 2938 2936 2935 2933 2931 2930 2928 2926 2925 2923 2921 2920 2918 2916 2915 2914 2912 2911 2909
3053 3051 3049 3047 3044 3042 3039 3037 3034 3031 3029 3026 3024 3021 3018 3015 3012 3009 3006 3003 3001 2998 2995 2992 2990 2987 2984 2981 2978 2975 2973 2970 2967 2965 2963 2961 2959 2957 2955 2953 2952 2951 2950 2948 2946 2945 2943 2942 2941 2939 2937 2936 2934 2932 2931 2929 2927 2926 2924 2922 2921 2919 2918 2916 2915 2913 2912 2910 2909
3052 3050 3048 3046 3043 3041 3038 3036 3033 3031 3028 3026 3023 3020 3017 3014 3011 3009 3006 3003 3000 2997 2995 2992 2989 2986 2983 2980 2977 2975 2972 2969 2967 2964 2962 2960 2958 2956 2954 2952 2951 2950 2948 2947 2946 2944 2942 2941 2940 2938 2936 2935 2933 2932 2930 2928 2926 2925 2923 2921 2920 2919 2917 2916 2914 2913 2911 2910 2909
3051 3049 3047 3045 3042 3040 3037 3035 3032 3030 3027 3025 3022 3019 3016 3013 3011 3008 3005 3002 3000 2997 2994 2991 2988 2985 2982 2980 2977 2974 2971 2969 2966 2964 2961 2959 2957 2955 2953 2951 2950 2948 2947 2946 2944 2943 2941 2940 2939 2937 2936 2934 2932 2931 2929 2927 2926 2924 2922 2921 2919 2918 2916 2915 2914 2912 2911 2909 2908
3050 3048 3046 3044 3041 3039 3036 3034 3031 3029 3026 3024 3021 3018 3016 3013 3010 3007 3004 3001 2999 2996 2993 2990 2987 2985 2982 2979 2976 2974 2971 2968 2965 2963 2960 2958 2956 2954 2952 2950 2949 2947 2946 2945 2943 2942 2940 2939 2937 2936 2935 2933 2931 2930 2928 2927 2925 2923 2921 2920 2918 2917 2916 2914 2913 2911 2910 2908 2907
3049 3047 3045 3043 3040 3038 3035 3033 3030 3028 3025 3023 3020 3017 3015 3012 3009 3006 3004 3001 2998 2995 2993 2990 2987 2984 2981 2979 2976 2973 2970 2968 2965 2962 2960 2957 2955 2953 2951 2949 2948 2946 2945 2944 2942 2941 2939 2938 2936 2935 2933 2932 2931 2929 2927 2926 2924 2922 2921 2919 2918 2916 2915 2913 2912 2911 2909 2907 2906
3048 3046 3044 3042 3039 3037 3034 3032 3030 3027 3025 3022 3019 3016 3014 3011 3008 3006 3003 3000 2997 2995 2992 2989 2986 2984 2981 2978 2975 2972 2970 2967 2965 2962 2959 2957 2955 2952 2950 2949 2947 2946 2944 2943 2941 2940 2938 2937 2935 2934 2932 2931 2930 2928 2926 2925 2923 2921 2920 2918 2916 2915 2913 2912 2911 2909 2908 2906 2905
3047 3045 3043 3041 3038 3036 3034 3031 3029 3026 3024 3021 3018 3016 3013 3011 3008 3005 3002 3000 2997 2994 2991 2989 2986 2983 2980 2977 2975 2972 2969 2967 2964 2961 2959 2956 2954 2952 2950 2948 2946 2945 2943 2942 2940 2939 2937 2936 2934 2933 2931 2930 2928 2927 2926 2924 2922 2920 2918 2917 2915 2914 2912 2911 2910 2908 2906 2905 2904
3046 3044 3042 3040 3037 3035 3033 3030 3028 3026 3023 3021 3018 3015 3012 3010 3007 3004 3001 2999 2996 2994 2991 2988 2985 2983 2980 2977 2974 2971 2969 2966 2964 2961 2959 2956 2954 2951 2949 2947 2946 2944 2942 2941 2939 2938 2936 2935 2933 2931 2930 2929 2927 2926 2924 2923 2921 2919 2917 2916 2914 2912 2911 2910 2908 2906 2905 2904 2902
3045 3043 3041 3039 3036 3034 3032 3029 3027 3025 3022 3020 3017 3014 3011 3009 3006 3004 3001 2998 2996 2993 2990 2987 2985 2982 2979 2977 2974 2971 2968 2966 2963 2961 2958 2956 2953 2951 2948 2946 2945 2943 2941 2940 2938 2937 2935 2934 2932 2930 2929 2927 2926 2925 2923 2922 2920 2918 2916 2915 2913 2911 2910 2908 2906 2905 2903 2902 2900
3044 3042 3040 3038 3036 3033 3031 3029 3026 3024 3021 3019 3016 3014 3011 3008 3006 3003 3000 2998 2995 2992 2990 2987 2984 2981 2979 2976 2973 2971 2968 2965 2963 2960 2958 2955 2953 2950 2948 2946 2944 2942 2940 2939 2937 2936 2934 2932 2931 2929 2928 2926 2925 2924 2922 2921 2919 2917 2915 2914 2912 2910 2909 2907 2905 2903 2901 2900 2898
3043 3041 3039 3037 3035 3033 3030 3028 3025 3023 3021 3018 3016 3013 3011 3008 3005 3002 3000 2997 2994 2992 2989 2986 2984 2981 2978 2976 2973 2970 2967 2965 2962 2960 2957 2955 2952 2950 2947 2945 2943 2941 2939 2938 2936 2935 2933 2931 2930 2928 2927 2926 2924 2923 2921 2920 2918 2916 2914 2912 2911 2909 2907 2905 2903 2901 2900 2898 2896
3042 3040 3038 3036 3034 3032 3029 3027 3025 3022 3020 3017 3015 3012 3010 3007 3005 3002 2999 2996 2994 2991 2989 2986 2983 2981 2978 2975 2973 2970 2967 2964 2961 2959 2956 2954 2952 2949 2947 2945 2942 2940 2938 2937 2935 2934 2932 2930 2929 2927 2926 2925 2923 2922 2920 2919 2917 2915 2913 2911 2910 2908 2906 2904 2901 2900 2898 2896 2894
3041 3039 3037 3036 3033 3031 3029 3026 3024 3021 3019 3017 3014 3012 3009 3006 3004 3001 2999 2996 2993 2991 2988 2986 2983 2980 2977 2975 2972 2969 2966 2964 2961 2959 2956 2954 2951 2949 2946 2944 2942 2940 2938 2936 2934 2932 2931 2929 2928 2926 2925 2924 2922 2921 2919 2918 2916 2914 2912 2910 2909 2906 2904 2902 2900 2898 2896 2894 2891
3041 3039 3036 3035 3032 3030 3028 3026 3023 3021 3018 3016 3014 3011 3009 3006 3003 3001 2998 2996 2993 2990 2987 2985 2982 2980 2977 2974 2972 2969 2966 2964 2961 2958 2956 2953 2951 2948 2946 2944 2941 2939 2937 2935 2933 2931 2930 2928 2927 2925 2924 2922 2921 2920 2918 2916 2914 2912 2911 2909 2907 2905 2903 2901 2898 2896 2894 2891 2889
3040 3038 3036 3034 3031 3029 3027 3025 3022 3020 3018 3016 3013 3011 3008 3006 3003 3000 2998 2995 2992 2990 2987 2985 2982 2980 2977 2974 2971 2969 2966 2964 2961 2958 2955 2953 2950 2948 2946 2943 2941 2939 2937 2935 2933 2931 2929 2927 2926 2924 2923 2921 2920 2919 2917 2915 2913 2911 2910 2908 2906 2904 2901 2899 2896 2894 2891 2889 2887
3039 3036 3035 3033 3031 3028 3026 3024 3022 3019 3017 3015 3012 3010 3007 3005 3002 3000 2997 2994 2992 2989 2987 2984 2982 2979 2977 2974 2971 2968 2966 2963 2961 2958 2955 2952 2950 2947 2945 2943 2941 2939 2936 2934 2932 2930 2928 2926 2925 2924 2922 2921 2920 2918 2916 2914 2913 2911 2909 2906 2904 2902 2900 2897 2895 2892 2890 2888 2886
3037 3036 3034 3032 3030 3028 3026 3023 3021 3019 3016 3014 3012 3009 3007 3004 3002 2999 2997 2994 2991 2989 2986 2984 2981 2979 2976 2974 2971 2968 2966 2963 2960 2958 2955 2952 2950 2947 2945 2943 2941 2938 2936 2934 2932 2930 2928 2926 2925 2923 2922 2921 2919 2917 2916 2914 2912 2910 2907 2905 2903 2901 2898 2896 2893 2891 2889 2887 2885
3036 3035 3033 3031 3029 3027 3025 3023 3020 3018 3016 3014 3011 3009 3006 3004 3001 2999 2996 2994 2991 2988 2986 2984 2981 2979 2976 2973 2971 2968 2966 2963 2960 2957 2955 2952 2950 2947 2945 2942 2940 2938 2936 2934 2932 2930 2928 2926 2925 2924 2922 2920 2918 2917 2916 2914 2911 2909 2907 2905 2902 2899 2896 2894 2892 2890 2888 2886 2884
3036 3034 3032 3030 3028 3026 3024 3022 3020 3017 3015 3013 3011 3008 3006 3003 3001 2998 2996 2993 2991 2989 2986 2984 2981 2978 2976 2973 2971 2968 2965 2962 2960 2957 2955 2952 2950 2947 2945 2942 2940 2938 2936 2934 2932 2930 2928 2927 2926 2925 2923 2920 2918 2916 2915 2912 2910 2908 2906 2904 2901 2898 2896 2893 2891 2889 2887 2886 2883
3035 3033 3031 3029 3027 3026 3024 3021 3019 3017 3015 3012 3010 3008 3005 3003 3001 2998 2996 2993 2991 2988 2986 2983 2981 2978 2976 2973 2970 2967 2965 2962 2959 2957 2954 2952 2949 2947 2944 2942 2940 2937 2936 2934 2932 2930 2928 2926 2925 2924 2922 2921 2918 2916 2914 2911 2910 2908 2906 2903 2901 2898 2895 2892 2890 2888 2886 2885 2883
3034 3032 3030 3028 3026 3025 3023 3021 3018 3016 3014 3011 3009 3007 3005 3002 3000 2998 2996 2993 2991 2988 2985 2983 2980 2978 2975 2973 2970 2967 2965 2962 2959 2957 2954 2952 2949 2947 2944 2942 2939 2937 2935 2933 2931 2930 2928 2926 2924 2923 2921 2920 2918 2916 2913 2912 2911 2909 2906 2903 2900 2898 2895 2892 2890 2888 2886 2884 2882
3033 3031 3030 3028 3026 3024 3022 3020 3018 3016 3013 3011 3009 3006 3004 3002 3000 2998 2995 2993 2990 2987 2985 2982 2980 2977 2975 2972 2970 2967 2964 2962 2959 2956 2954 2952 2949 2947 2944 2942 2939 2937 2935 2933 2931 2929 2927 2925 2924 2922 2921 2920 2918 2915 2914 2913 2911 2908 2906 2903 2900 2897 2895 2892 2890 2888 2886 2884 2882
3032 3031 3029 3027 3025 3023 3021 3019 3017 3015 3013 3011 3008 3006 3004 3001 2999 2997 2995 2992 2990 2987 2985 2982 2980 2977 2975 2973 2970 2967 2965 2962 2959 2956 2954 2951 2949 2947 2944 2942 2939 2937 2935 2933 2931 2929 2927 2925 2923 2921 2920 2919 2917 2916 2914 2913 2911 2908 2906 2903 2900 2897 2894 2892 2890 2888 2886 2884 2882
3031 3030 3028 3026 3024 3022 3021 3018 3016 3014 3012 3010 3008 3006 3003 3001 2999 2996 2994 2992 2990 2987 2985 2982 2980 2977 2975 2973 2970 2967 2965 2962 2959 2956 2954 2951 2949 2947 2944 2942 2940 2937 2935 2933 2931 2929 2927 2925 2923 2921 2920 2918 2917 2916 2915 2913 2911 2908 2905 2902 2899 2896 2893 2891 2890 2888 2886 2884 2882
3031 3029 3027 3026 3024 3022 3020 3018 3016 3014 3011 3009 3007 3005 3003 3001 2999 2996 2994 2992 2989 2987 2984 2982 2979 2977 2974 2972 2970 2967 2965 2962 2959 2956 2954 2951 2949 2947 2944 2942 2940 2937 2935 2933 2931 2929 2927 2925 2923 2921 2920 2918 2917 2916 2914 2913 2910 2907 2904 2901 2898 2896 2894 2892 2890 2888 2886 2884 2882
3030 3028 3026 3025 3023 3021 3019 3017 3015 3013 3011 3009 3007 3005 3002 3000 2998 2996 2994 2991 2989 2986 2984 2982 2979 2977 2974 2972 2970 2967 2965 2962 2959 2956 2954 2951 2949 2947 2944 2942 2940 2937 2935 2933 2931 2929 2927 2925 2923 2921 2919 2918 2916 2915 2913 2911 2908 2906 2903 2900 2898 2896 2895 2893 2891 2888 2886 2884 2882
3029 3027 3026 3024 3022 3021 3019 3017 3015 3013 3011 3009 3006 3004 3002 3000 2998 2995 2993 2991 2989 2986 2984 2982 2979 2977 2975 2972 2970 2967 2965 2962 2959 2956 2954 2952 2949 2947 2945 2942 2940 2938 2936 2933 2931 2929 2927 2925 2923 2921 2919 2917 2915 2913 2911 2909 2907 2904 2902 2900 2899 2897 2896 2893 2891 2889 2886 2884 2882
3028 3026 3025 3023 3021 3020 3018 3016 3014 3012 3010 3008 3006 3004 3002 3000 2997 2995 2993 2991 2989 2986 2984 2981 2979 2976 2974 2971 2969 2967 2964 2962 2959 2956 2954 2952 2950 2947 2945 2942 2940 2938 2936 2933 2931 2929 2927 2925 2922 2920 2918 2916 2914 2911 2909 2907 2906 2904 2902 2901 2899 2897 2896 2894 2891 2889 2886 2884 2881
3027 3026 3024 3022 3021 3019 3017 3016 3014 3012 3010 3008 3006 3003 3001 2999 2997 2995 2993 2991 2988 2986 2984 2981 2979 2976 2973 2971 2969 2966 2964 2961 2959 2956 2954 2952 2950 2947 2945 2943 2940 2938 2936 2933 2931 2929 2926 2924 2922 2920 2917 2915 2912 2910 2908 2906 2905 2904 2902 2901 2899 2898 2896 2893 2891 2888 2886 2883 2881
3027 3025 3024 3022 3020 3018 3017 3015 3013 3011 3010 3007 3006 3003 3001 2999 2997 2995 2992 2990 2988 2986 2983 2981 2978 2976 2973 2971 2969 2966 2964 2961 2959 2956 2954 2952 2950 2948 2945 2943 2941 2938 2936 2933 2931 2929 2926 2924 2922 2920 2917 2915 2912 2910 2908 2906 2906 2904 2902 2901 2899 2898 2896 2894 2891 2888 2886 2883 2881
3026 3025 3023 3021 3019 3018 3016 3015 3013 3011 3009 3007 3005 3003 3001 2999 2997 2995 2992 2990 2988 2986 2983 2981 2978 2976 2973 2971 2969 2966 2964 2961 2958 2956 2954 2952 2950 2948 2946 2943 2941 2938 2936 2933 2931 2928 2926 2924 2921 2919 2917 2915 2912 2910 2908 2906 2906 2905 2903 2901 2900 2898 2896 2894 2891 2888 2886 2883 2881
3025 3024 3022 3021 3019 3017 3016 3014 3012 3011 3009 3007 3005 3003 3001 2999 2996 2995 2992 2990 2988 2986 2983 2981 2978 2976 2973 2971 2968 2966 2963 2961 2958 2956 2954 2952 2950 2948 2946 2943 2941 2938 2936 2933 2931 2928 2926 2924 2921 2919 2917 2915 2913 2911 2908 2906 2906 2905 2903 2901 2900 2898 2896 2894 2891 2888 2886 2883 2881
3025 3023 3021 3020 3018 3016 3015 3014 3012 3011 3009 3007 3005 3003 3001 2999 2997 2995 2992 2990 2988 2986 2983 2981 2978 2976 2973 2971 2968 2966 2963 2961 2958 2956 2954 2952 2950 2948 2946 2944 2941 2939 2936 2933 2931 2928 2926 2923 2921 2919 2917 2916 2914 2912 2909 2906 2905 2904 2903 2901 2900 2898 2896 2894 2891 2888 2886 2883 2881
3024 3022 3021 3019 3017 3016 3015 3013 3011 3010 3008 3006 3005 3003 3001 2999 2997 2995 2992 2990 2988 2986 2983 2981 2978 2976 2973 2971 2968 2965 2963 2960 2958 2956 2955 2952 2950 2948 2946 2944 2941 2939 2936 2933 2931 2928 2926 2923 2921 2919 2918 2916 2915 2913 2910 2907 2904 2903 2903 2902 2900 2898 2896 2893 2890 2888 2886 2883 2881